TimePST,TemperatureF,Dew PointF,Humidity,Sea Level PressureIn,VisibilityMPH,Wind Direction,Wind SpeedMPH,Gust SpeedMPH,PrecipitationIn,Events,Conditions,WindDirDegrees,DateUTC
12:00 AM,44.4,-9999,N/A,29.65,-9999.0,North,5.8,-,N/A,,Unknown,10,2012-11-29 08:00:00
1:00 AM,44.6,-9999,N/A,29.62,-9999.0,NE,5.8,-,0.01,,Unknown,40,2012-11-29 09:00:00
2:00 AM,44.6,-9999,N/A,29.60,-9999.0,NNE,6.9,-,N/A,,Unknown,20,2012-11-29 10:00:00
3:00 AM,44.8,-9999,N/A,29.59,-9999.0,NNE,4.6,-,N/A,,Unknown,30,2012-11-29 11:00:00
4:00 AM,44.8,-9999,N/A,29.55,-9999.0,NE,5.8,-,N/A,,Unknown,40,2012-11-29 12:00:00
5:00 AM,48.7,-9999,N/A,29.50,-9999.0,SSE,2.3,-,N/A,,Unknown,150,2012-11-29 13:00:00
6:00 AM,49.6,-9999,N/A,29.47,-9999.0,SSE,3.5,-,N/A,,Unknown,150,2012-11-29 14:00:00
7:00 AM,51.3,-9999,N/A,29.42,-9999.0,ESE,8.1,19.6,N/A,,Unknown,120,2012-11-29 15:00:00
8:00 AM,50.9,-9999,N/A,29.42,-9999.0,SSE,6.9,19.6,N/A,,Unknown,160,2012-11-29 16:00:00
9:00 AM,49.5,-9999,N/A,29.46,-9999.0,SSW,16.1,-,N/A,,Unknown,200,2012-11-29 17:00:00
10:00 AM,51.1,-9999,N/A,29.47,-9999.0,SSE,5.8,-,N/A,,Unknown,160,2012-11-29 18:00:00
11:00 AM,49.8,-9999,N/A,29.49,-9999.0,WSW,6.9,-,N/A,,Unknown,240,2012-11-29 19:00:00
12:00 PM,52.7,-9999,N/A,29.51,-9999.0,ENE,3.5,-,N/A,,Unknown,70,2012-11-29 20:00:00
1:00 PM,55.0,-9999,N/A,29.51,-9999.0,East,3.5,-,N/A,,Unknown,80,2012-11-29 21:00:00
2:00 PM,52.0,-9999,N/A,29.50,-9999.0,East,2.3,-,N/A,,Unknown,90,2012-11-29 22:00:00
3:00 PM,50.2,-9999,N/A,29.50,-9999.0,NE,5.8,-,N/A,,Unknown,40,2012-11-29 23:00:00
4:00 PM,49.1,-9999,N/A,29.49,-9999.0,NE,4.6,-,N/A,,Unknown,50,2012-11-30 00:00:00
5:00 PM,47.8,-9999,N/A,29.48,-9999.0,North,5.8,-,N/A,,Unknown,360,2012-11-30 01:00:00
6:00 PM,47.1,-9999,N/A,29.46,-9999.0,NNE,4.6,-,N/A,,Unknown,20,2012-11-30 02:00:00
7:00 PM,46.8,-9999,N/A,29.44,-9999.0,North,5.8,-,N/A,,Unknown,360,2012-11-30 03:00:00
8:00 PM,48.0,-9999,N/A,29.43,-9999.0,East,1.2,-,N/A,,Unknown,100,2012-11-30 04:00:00
9:00 PM,48.6,-9999,N/A,29.42,-9999.0,ESE,3.5,-,N/A,,Unknown,120,2012-11-30 05:00:00
10:00 PM,48.6,-9999,N/A,29.41,-9999.0,ESE,2.3,-,N/A,,Unknown,120,2012-11-30 06:00:00
11:00 PM,47.7,-9999,N/A,29.39,-9999.0,East,3.5,-,N/A,,Unknown,90,2012-11-30 07:00:00